SCP
0 0 0 0 0 0 0 0 0 0 0 0 0 0 0 0 0 0 0 0 0 0 0 0 0 0 0 0 0 0 0 0 0 0 0 0 0 0 0 0 0 0 0
0 0 0 0 0 0 0 0 0 0 0 0 0 0 0 0 0 0 0 0 0 0 0 0 0 0 0 0 0 0 0 0 0 0 0 0 0 0 0 0 0 0 0
0 0 0 0 0 0 0 0 0 0 0 0 0 0 0 0 0 0 0 0 0 0 0 0 0 0 0 0 0 0 0 0 0 0 0 0 0 0 0 0 0 0 0
0 0 0 0 0 0 0 0 0 0 0 0 0 0 0 0 0 0 0 0 0 0 0 0 0 0 0 0 0 0 0 0 0 0 0 0 0 0 0 0 0 0 0
0 0 0 0 0 0 0 0 0 0 0 0 0 0 0 0 0 0 0 0 0 0 0 0 0 0 0 0 0 0 0 0 0 0 0 0 0 0 0 0 0 0 0
0 0 0 0 1 1 1 1 0 0 0 0 0 0 0 0 0 0 0 0 0 0 0 0 0 0 0 0 0 0 0 0 0 0 0 0 0 0 0 0 0 0 0
0 0 0 1 1 1 1 1 0 0 0 0 0 0 0 0 0 0 0 0 0 0 0 0 0 0 0 0 0 0 0 0 0 0 0 0 0 0 0 0 0 0 0
0 0 0 1 1 1 1 1 0 0 0 0 0 0 0 0 0 0 0 0 0 0 0 0 0 0 0 0 0 0 0 0 0 0 0 0 0 0 0 0 0 0 0
0 0 0 0 0 0 0 0 0 0 0 0 0 0 0 0 0 0 0 0 0 0 0 0 0 0 0 0 0 0 0 0 0 0 0 0 0 0 0 0 0 0 0
0 0 0 0 0 0 0 0 0 0 0 0 0 0 0 0 0 0 0 0 0 0 0 0 0 0 0 0 0 0 0 0 0 0 0 0 0 0 0 0 0 0 0
0 0 0 0 0 0 0 0 0 0 0 0 0 0 0 0 0 0 0 0 0 0 0 0 0 0 0 0 0 0 0 0 0 0 0 0 0 0 0 0 0 0 0
0 0 0 0 0 0 0 0 0 0 0 0 0 0 0 0 0 0 0 0 0 0 0 0 0 0 0 0 0 0 0 0 0 0 0 0 0 0 0 0 0 0 0
0 0 0 0 0 0 0 0 0 0 0 0 0 0 0 0 0 0 0 0 0 0 0 0 0 0 0 0 0 0 0 0 0 0 0 0 0 0 0 0 0 0 0
0 0 0 0 0 0 0 0 0 0 0 0 0 0 0 0 0 0 0 0 0 0 0 0 0 0 0 0 0 0 0 0 0 0 0 0 0 0 0 0 0 0 0
0 0 0 0 0 0 0 0 0 0 0 0 0 0 0 0 0 0 0 0 0 0 0 0 0 0 0 0 0 0 0 0 0 0 0 0 0 0 0 0 0 0 0
0 0 0 0 0 0 0 0 0 0 0 0 0 0 0 0 0 0 0 0 0 0 0 0 0 0 0 0 0 0 0 0 0 0 0 0 0 0 0 0 0 0 0
0 0 0 0 0 0 0 0 0 0 0 0 0 0 0 0 0 0 0 0 0 0 0 0 0 0 0 0 0 0 0 0 0 0 0 0 0 0 0 0 0 0 0
0 0 0 0 0 0 0 0 0 0 0 0 0 0 0 0 0 0 0 0 0 0 0 0 0 0 0 0 0 0 0 0 0 0 0 0 0 0 0 0 0 0 0
0 0 0 0 0 0 0 0 0 0 0 0 0 0 0 0 0 0 0 0 0 0 0 0 0 0 0 0 0 0 0 0 0 0 0 0 0 0 0 0 0 0 0
0 0 0 0 0 0 0 0 0 0 0 0 0 0 0 0 0 0 0 0 0 0 0 0 0 0 0 0 0 0 0 0 0 0 0 0 0 0 0 0 0 0 0
0 0 0 0 0 0 0 0 0 0 0 0 0 0 0 0 0 0 0 0 0 0 0 0 0 0 0 0 0 0 0 0 0 0 0 0 0 0 0 0 0 0 0
0 0 0 0 0 0 0 0 0 0 0 0 0 0 0 0 0 0 0 0 0 0 0 0 0 0 0 0 0 0 0 0 0 0 0 0 0 0 0 0 0 0 0
0 0 0 0 0 0 0 0 0 0 0 0 0 0 0 0 0 0 0 0 0 0 0 0 0 0 0 0 0 0 0 0 0 0 0 0 0 0 0 0 0 0 0
0 0 0 0 0 0 0 0 0 0 0 0 0 0 0 0 0 0 0 0 0 0 0 0 0 0 0 0 0 0 0 0 0 0 0 0 0 0 0 0 0 0 0
0 0 0 0 0 0 0 0 0 0 0 0 0 0 0 0 0 0 0 0 0 0 0 0 0 0 0 0 0 0 0 0 0 0 0 0 0 0 0 0 0 0 0
0 0 0 0 0 0 0 0 0 0 0 0 0 0 0 0 0 0 0 0 0 0 0 0 0 0 0 0 0 0 0 0 0 0 0 0 0 0 0 0 0 0 0
Wind_Speed
4 4 9 11 12 12 13 13 13 14 14 14 14 15 15 14 14 14 13 13 12 12 12 12 12 12 12 12 12 12 11 11 10 10 10 9 10 10 10 9 8 5 9
6 6 11 12 13 13 13 13 13 13 14 14 14 14 14 14 14 13 13 13 12 12 12 12 12 12 12 12 12 11 11 11 10 10 9 8 8 8 8 8 7 5 8
7 7 9 12 12 13 13 13 13 13 13 14 14 14 14 13 13 13 13 12 12 12 12 12 11 11 11 11 11 10 10 10 10 10 8 4 4 7 7 7 7 7 7
8 7 8 12 12 13 13 13 13 13 13 13 13 13 13 13 13 13 13 12 12 12 12 11 11 11 11 10 10 10 10 9 9 9 5 3 3 5 6 7 7 6 5
7 6 8 13 13 12 13 13 13 13 12 12 12 13 13 13 12 12 12 12 11 11 11 11 11 10 10 10 10 10 9 9 9 7 4 3 3 4 5 5 5 5 5
6 6 8 12 13 12 12 12 12 12 12 12 12 12 12 12 12 11 11 11 11 11 10 10 10 9 9 9 9 9 9 9 7 4 3 3 2 3 5 5 4 4 4
6 5 7 12 13 12 12 12 12 11 11 11 11 11 11 11 11 10 10 10 10 10 9 9 9 8 8 8 8 8 8 8 5 3 2 2 2 3 3 3 3 3 3
6 5 6 11 12 11 11 11 11 11 11 10 10 10 10 10 10 10 10 9 9 9 8 8 8 7 7 7 7 7 7 7 5 3 2 2 2 3 2 2 3 2 2
6 6 5 6 7 10 10 10 10 10 10 10 10 10 9 9 9 9 9 9 8 8 8 7 7 7 6 6 6 6 7 6 4 2 2 2 3 3 3 2 2 2 2
5 5 5 5 5 5 5 9 9 9 9 10 10 9 9 8 8 8 7 8 8 7 7 7 7 6 6 6 6 6 6 5 2 2 1 2 4 4 4 4 3 3 3
5 4 4 5 5 5 5 6 7 8 8 8 7 9 7 4 4 4 6 7 7 7 6 6 6 6 6 5 6 5 4 2 1 1 1 3 4 4 4 4 4 4 5
5 4 4 5 5 5 4 4 3 4 4 4 4 4 3 3 3 4 6 7 6 6 5 5 5 5 4 2 3 4 1 1 1 1 2 4 4 5 5 5 5 5 5
5 4 4 4 4 5 4 3 2 2 3 3 4 4 3 3 3 3 2 3 3 4 2 3 2 2 1 1 1 1 1 1 0 1 2 4 5 5 6 6 6 6 6
6 5 4 4 4 4 4 3 3 2 2 2 2 3 3 2 2 2 2 2 2 1 1 1 1 1 1 1 0 0 1 0 1 1 2 5 6 6 7 7 7 7 7
5 5 4 4 5 4 4 3 3 2 2 2 2 2 3 3 2 2 1 1 1 1 1 1 1 1 1 1 1 1 1 1 1 1 2 5 6 7 7 8 8 8 9
6 6 5 5 4 4 3 3 3 2 2 2 2 2 3 2 2 2 1 1 1 1 1 1 1 1 1 1 1 1 1 1 1 2 2 3 5 7 7 8 9 9 9
7 6 5 5 5 4 4 3 3 2 2 2 2 2 2 2 2 2 1 1 0 0 1 1 1 1 1 1 2 2 1 1 2 2 2 1 2 5 7 9 10 10 10
6 6 5 5 5 4 4 3 2 2 2 2 1 1 2 2 2 2 1 0 0 0 1 1 1 1 1 1 1 2 2 2 2 2 2 2 1 2 4 8 9 10 11
7 7 6 5 5 4 4 3 2 2 2 1 1 1 1 2 2 2 1 1 1 1 0 0 0 0 1 1 1 2 2 2 2 2 2 2 2 2 2 5 8 10 11
6 6 6 5 5 4 3 3 2 2 1 1 1 1 2 2 2 2 1 1 1 1 0 0 0 0 0 1 1 2 2 2 2 2 2 2 2 2 2 3 3 6 10
5 6 6 6 5 5 3 2 2 1 0 0 0 0 1 1 2 2 1 1 1 1 1 1 1 0 1 1 1 2 2 2 2 2 2 2 2 2 2 3 2 3 4
7 7 7 6 6 5 3 2 2 2 1 1 0 0 0 0 1 2 2 1 1 1 1 1 1 1 0 1 1 1 3 3 2 2 2 2 3 2 3 4 3 4 4
7 8 8 7 6 5 4 3 3 2 2 1 1 1 1 0 1 1 2 1 1 2 2 2 2 2 1 1 0 1 1 3 3 2 2 2 2 2 3 3 4 4 5
7 7 7 7 6 6 6 5 5 3 2 2 1 1 1 1 1 1 1 2 2 2 2 2 2 2 2 1 1 1 2 2 2 4 3 2 3 3 4 4 4 4 4
6 6 6 6 6 5 6 6 5 3 2 1 1 0 0 1 1 1 1 1 2 2 2 2 2 2 2 2 2 1 1 1 2 2 5 4 3 3 3 4 3 4 4
3 4 5 6 5 5 5 5 5 5 4 3 1 1 0 1 1 1 1 1 1 2 2 2 2 2 3 3 2 2 2 2 2 2 4 6 6 4 4 3 3 4 4
Wind_Direction
171 172 151 138 134 128 123 118 114 110 109 109 110 110 111 109 108 107 106 104 102 100 99 99 97 94 91 90 89 86 85 84 82 80 81 83 83 84 84 83 78 72 80
151 156 146 139 136 132 126 121 116 113 111 109 110 110 110 108 107 106 105 104 102 99 97 95 94 94 90 88 86 85 83 82 80 79 75 74 78 83 87 89 89 85 83
138 144 143 139 136 132 127 123 119 116 113 113 112 111 110 107 105 103 102 100 97 96 94 92 91 90 89 88 87 84 83 82 80 76 69 53 64 82 84 85 87 86 86
135 136 139 138 135 131 129 127 123 118 115 114 113 111 111 108 105 102 100 99 96 93 91 91 88 87 86 86 85 84 82 81 80 75 57 43 38 78 81 83 78 77 79
126 131 138 135 134 131 129 128 124 121 118 116 114 112 111 110 107 104 101 99 97 93 92 90 87 86 85 85 83 81 80 80 76 68 50 37 26 69 80 81 75 71 69
120 126 137 135 134 131 130 127 123 121 119 118 115 114 113 111 109 105 102 100 98 96 93 90 86 85 83 84 83 81 81 77 68 58 46 30 18 55 77 78 72 68 59
118 123 136 134 133 130 129 127 124 121 119 119 117 116 114 111 108 105 101 100 98 98 96 92 88 85 84 81 79 76 77 75 68 54 37 18 14 38 60 69 62 63 54
119 115 127 129 129 128 126 124 123 121 118 117 117 116 116 113 110 107 103 100 97 94 92 91 88 84 83 80 77 75 71 69 65 49 23 359 3 10 32 46 37 30 31
106 105 104 113 120 124 124 122 120 118 116 115 113 111 110 110 110 107 103 100 98 95 92 87 83 80 80 78 76 72 69 63 63 42 16 356 3 358 357 7 358 346 345
93 98 102 100 102 106 112 116 114 114 112 111 108 104 101 99 102 102 101 98 98 95 91 85 80 75 74 70 68 67 67 59 52 32 2 345 353 345 343 346 340 326 320
106 97 105 106 102 101 104 108 105 106 106 104 102 99 91 79 81 86 90 91 95 93 90 84 77 71 66 60 57 58 62 56 46 11 329 345 342 333 327 326 327 324 319
146 129 114 115 113 106 100 91 82 83 88 87 87 90 84 80 79 79 78 81 84 82 80 77 71 66 60 46 40 46 47 45 39 340 327 340 334 330 324 318 315 310 311
153 139 125 124 118 112 108 102 86 81 81 83 91 93 91 82 76 68 68 63 62 65 63 58 56 50 55 49 34 29 33 37 359 317 322 335 334 327 321 316 313 309 308
149 143 133 125 119 113 112 109 105 100 98 98 100 106 105 95 84 80 75 63 59 58 66 61 64 50 51 43 48 23 10 342 316 305 315 333 327 323 321 318 312 310 310
156 152 146 132 127 123 114 118 112 112 115 116 110 109 115 115 110 98 87 78 69 63 71 64 58 41 34 18 7 2 328 307 301 303 313 332 332 327 324 322 318 315 314
168 164 153 142 136 128 124 124 124 120 117 112 113 117 118 122 124 118 105 90 78 73 71 82 57 26 356 357 348 333 299 289 291 301 309 326 336 334 330 327 323 319 319
173 164 158 152 138 133 131 133 128 131 125 124 127 125 122 123 130 131 126 118 112 94 81 63 35 31 15 4 341 323 314 306 304 303 309 306 321 334 330 325 323 320 318
165 163 164 157 146 143 139 135 130 134 134 138 137 134 136 136 135 129 133 161 169 117 101 88 54 29 360 349 329 316 311 312 303 297 304 306 308 315 326 328 324 322 321
170 165 164 156 152 149 139 129 127 128 131 141 139 143 151 142 139 138 148 169 135 124 124 107 51 74 325 330 312 305 304 303 296 302 308 305 299 299 301 327 327 325 323
165 162 160 151 147 137 121 104 93 91 86 102 142 166 160 157 150 145 156 151 126 121 143 173 188 318 261 297 321 319 303 290 283 288 294 297 295 293 300 310 314 321 322
159 162 163 156 152 141 132 135 131 142 136 56 231 181 174 173 166 162 169 166 158 169 202 202 188 178 325 342 9 327 310 291 285 284 284 286 289 287 297 301 298 296 308
176 174 170 168 164 165 160 149 144 144 156 174 134 43 133 191 186 180 180 189 187 180 190 190 159 169 276 51 100 5 328 323 309 283 283 279 286 297 304 306 299 297 294
181 182 179 175 169 163 146 120 96 81 66 59 7 322 306 276 236 198 192 189 195 185 207 215 191 178 203 254 173 162 204 270 303 293 280 283 291 296 295 296 295 295 296
192 183 176 171 164 159 151 150 150 157 178 203 205 240 294 302 293 243 208 199 202 206 217 220 196 194 179 221 261 222 217 224 271 302 300 287 287 287 287 297 298 293 293
184 174 170 162 159 158 160 161 158 155 162 155 148 147 330 335 332 315 244 213 216 218 223 224 212 206 199 202 208 217 238 260 239 258 293 304 301 276 276 281 283 285 290
153 156 155 152 156 158 158 159 159 158 156 149 149 165 282 320 323 323 300 252 239 229 226 228 224 221 220 215 218 214 210 221 233 240 277 297 298 292 286 274 273 278 286